Location: Tucson
(32.2217°N, 110.9265°W)
Time: 02:40:37
(UTC-07:00)

Tiros 1 - Pass Details

Date: 01 November 2021
Orbit: 630 x 663 km, 48.4° (Epoch: 07 December)

Event Time Altitude Azimuth Distance (km) Brightness Sun altitude
Rises 05:03:32 0° 192° (SSW) 2,970 10.5 -21.1°
Reaches altitude 10° 05:06:25 10° 175° (S) 2,065 9.8 -20.4°
Maximum altitude 05:09:48 19° 129° (SE) 1,540 9.7 -19.7°
Drops below altitude 10° 05:13:12 10° 84° (E) 2,074 10.9 -19.0°
Sets 05:16:06 0° 67° (ENE) 2,989 11.6 -18.4°
